Other Surface Observations
Issued by NWS Tucson, AZ

Home | Current Version | Previous Version | Text Only | Print | Product List | Glossary On
Versions: 1 2 3 4 5 6 7 8 9 10 11 12 13 14 15 16 17 18 19 20 21 22 23 24 25 26 27 28 29 30 31 32 33 34 35 36 37 38 39 40 41 42 43 44 45 46 47 48 49 50
681
SXUS55 KTWC 212215
OSOTWC

WEATHER ROUNDUP FOR SOUTHEAST ARIZONA
NATIONAL WEATHER SERVICE TUCSON AZ
315 PM MST MON AUG 21 2017

AZZ504>506-514-212315-
LOCATION       SKY/WX    TMP DP  RH WIND       PRES   REMARKS
TUCSON         SUNNY     97  48  19 W3        30.01F
DAVIS-MONTHAN  SUNNY     99  49  18 NW8       30.00F
CHILDRENS PARK N/A      N/A N/A  20 NW4               PIMA CO DEQ
ALVERNON/22ND  N/A       94 N/A N/A NW5               PIMA CO DEQ
CHERRY/GLENN   N/A      N/A N/A N/A N/A               PIMA CO DEQ
TANGERINE      N/A       95 N/A N/A NW3               PIMA CO DEQ
CONTL RANCH    N/A       96  48  20 NW4               PIMA CO DEQ
GRANT/1ST      N/A       94  47  20 W7                PIMA CO DEQ
CRAYCROFT/22ND N/A       95  49  21 N/A               PIMA CO DEQ
GOLFLINKS/KOLB N/A      N/A N/A N/A N/A               PIMA CO DEQ
AJO/12TH       N/A       95  49  21 SW5               PIMA CO DEQ
FAIRGROUNDS    N/A       92 N/A N/A NW5               PIMA CO DEQ
SAGUARO        N/A       99  53  22 W3                *SABINO CYN
SAN CARLOS     N/A       96  57  27 E4G10             *SAN CARLOS
GREEN VALLEY   N/A       94  47  20 N3                PIMA CO DEQ
HORSE CAMP CYN N/A       89  54  31 SW6G19            *ARAVAIPA CYN
RINCON MTNS    N/A       65  49  57 CALM              *NR MANNING CAMP
$$

AZZ509>511-212315-
LOCATION       SKY/WX    TMP DP  RH WIND       PRES   REMARKS
SAFFORD        SUNNY     91  54  28 CALM      30.02F
STRAY HORSE    N/A       70  52  53 W7G14             *
TRAIL CABIN    N/A       79  52  39 N3G10             *N OF GRANVILLE
BLACK HILLS    NOT AVBL
DRY LAKE       N/A       76  55  49 N4                *NATANES MTNS
NOON CREEK     N/A       81  54  40 E3                *PINALENO MTNS
COLUMBINE      N/A       59  51  74 CALM              *PINALENO MTNS
GUTHRIE        N/A       80  57  45 NW2               *SW OF GUTHRIE
$$

AZZ502-503-513-212315-
LOCATION       SKY/WX    TMP DP  RH WIND       PRES   REMARKS
NOGALES        PTSUNNY   89  53  29 W5        30.09F
SELLS          N/A       99  47  17 NE6G10            *
SASABE         N/A       94  48  21 E6G11             *ALTAR VLY
HOPKINS        N/A       77  49  38 E3G10             *SANTA RITA MTNS
CARR CYN       N/A       84  54  36 E2                *W OF HEREFORD
$$

AZZ507-508-512-212315-
LOCATION       SKY/WX    TMP DP  RH WIND       PRES   REMARKS
SIERRA VISTA   PTSUNNY   84  51  31 NE5       30.17F
DOUGLAS        SUNNY     87  52  29 VRB3      30.11F
EMPIRE MTNS    NOT AVBL
MULESHOE RANCH N/A       87  54  32 NW7G13            *PRESERVE
HEADQUARTERS   N/A       85  51  31 W6G10             *CHIRICAHUA MTNS
$$

.............................NOTES.............................
THIS IS AN AUTOMATED COLLECTIVE WITH MINIMAL QUALITY CONTROL.
PIMA CO DEQ SITES HAVE NONSTANDARD WIND SENSOR HEIGHTS.
PIMA CO DEQ SITES DO NOT REPORT WIND GUSTS.
* INDICATES WIND SENSORS LOCATED AT 20 FEET INSTEAD OF 33 FEET.
..............................KEY..............................
SKY/WX - SKY CONDITION/WEATHER
TMP    - TEMPERATURE IN FAHRENHEIT
DP     - DEWPOINT IN FAHRENHEIT
RH     - RELATIVE HUMIDITY IN PERCENT
WIND   - DIRECTION AND SPEED IN MILES PER HOUR (MPH)
VRB    - VARIABLE WIND DIRECTION
PRES   - MEAN SEA LEVEL PRESSURE IN INCHES OF MERCURY
         F - FALLING PRESSURE   R - RISING PRESSURE
         S - STEADY PRESSURE
VSB    - VISIBILITY IN MILES
HX     - HEAT INDEX IN FAHRENHEIT
WCI    - WIND CHILL INDEX IN FAHRENHEIT
N/A    - NOT AVAILABLE
AFB    - AIR FORCE BASE
         DAVIS-MONTHAN IS DAVIS-MONTHAN AIR FORCE BASE
CYN    - CANYON
MTNS   - MOUNTAINS
NCA    - NATIONAL CONSERVATION AREA
NR     - NEAR
VLY    - VALLEY
CONTL  - CONTINENTAL
PIMA CO DEQ - PIMA COUNTY DEPT OF ENVIRONMENTAL QUALITY



USA.gov is the U.S. government's official web portal to all federal, state and local government web resources and services.